KC3LDA Weather Reports


time (UTC)temp
F
wind
direction
speed
knots
gust
knots
rain 1hr
in
rain 24hr
in
rain mn
in
humidity
%
barometer
mb
20260504202203 58 209 10.4 16.5 0.00 0.00 0.00 79 1007.6
20260504201700 59 204 7.0 16.5 0.00 0.00 0.00 78 1007.5
20260504201158 59 205 6.1 18.2 0.00 0.00 0.00 79 1007.7
20260504200655 58 194 8.7 14.8 0.00 0.00 0.00 78 1007.7
20260504200151 59 179 5.2 17.4 0.00 0.00 0.00 78 1007.6
20260504195647 59 209 10.4 15.6 0.00 0.00 0.00 77 1007.8
20260504195143 59 199 7.0 15.6 0.00 0.00 0.00 77 1007.8
20260504194640 59 183 9.6 16.5 0.00 0.00 0.00 78 1008.0
20260504194136 59 169 10.4 17.4 0.00 0.00 0.00 77 1008.2
20260504193633 60 189 9.6 13.0 0.00 0.00 0.00 78 1008.0
20260504193131 59 209 9.6 16.5 0.00 0.00 0.00 78 1008.1
20260504192629 59 194 7.0 13.0 0.00 0.00 0.00 78 1008.3
20260504192126 59 203 9.6 13.9 0.00 0.00 0.00 78 1008.1
20260504191625 59 191 4.3 17.4 0.00 0.00 0.00 78 1008.1
20260504191121 59 184 7.8 14.8 0.00 0.00 0.00 77 1008.3
20260504190617 59 210 6.1 15.6 0.00 0.00 0.00 79 1008.3
20260504190114 59 206 4.3 23.5 0.00 0.00 0.00 79 1008.4
20260504185610 59 199 6.1 14.8 0.00 0.00 0.00 77 1008.4
20260504185107 60 186 5.2 13.0 0.00 0.00 0.00 76 1008.5
20260504184602 59 188 19.1 19.1 0.00 0.00 0.00 76 1008.3
20260504184058 59 207 7.0 20.9 0.00 0.00 0.00 76 1008.4
20260504183555 60 180 5.2 19.1 0.00 0.00 0.00 76 1008.9
20260504183053 60 196 12.2 18.2 0.00 0.00 0.00 75 1008.6
20260504182550 60 180 5.2 15.6 0.00 0.00 0.00 77 1008.7
20260504182047 59 205 6.1 21.7 0.00 0.00 0.00 76 1008.6
20260504181544 59 207 7.8 18.2 0.00 0.00 0.00 76 1008.7
20260504181042 59 182 7.0 13.9 0.00 0.00 0.00 76 1008.9
20260504180541 59 193 13.0 15.6 0.00 0.00 0.00 76 1009.0
20260504180039 59 185 4.3 22.6 0.00 0.00 0.00 77 1008.8
20260504175536 59 189 4.3 12.2 0.00 0.00 0.00 77 1008.9
20260504175033 59 195 5.2 14.8 0.00 0.00 0.00 78 1009.0
20260504174531 59 183 13.0 20.9 0.00 0.00 0.00 78 1009.2
20260504174028 59 210 12.2 14.8 0.00 0.00 0.00 76 1009.1
20260504173525 59 201 7.0 16.5 0.00 0.00 0.00 78 1009.0
20260504173022 59 204 10.4 16.5 0.00 0.00 0.00 77 1008.9
20260504172518 59 194 1.7 18.2 0.00 0.00 0.00 79 1009.2
20260504172015 59 190 8.7 13.0 0.00 0.00 0.00 79 1009.2
20260504171512 59 196 9.6 13.9 0.00 0.00 0.00 80 1009.2
20260504171008 58 203 7.0 14.8 0.00 0.00 0.00 80 1009.4
20260504170504 58 192 4.3 17.4 0.00 0.00 0.00 80 1009.5
20260504160425 59 207 7.8 12.2 0.00 0.00 0.00 77 1010.1
20260504150848 59 200 6.1 11.3 0.00 0.00 0.00 67 1010.6
20260504150345 60 175 6.1 11.3 0.00 0.00 0.00 68 1010.5
20260504141315 58 171 6.1 14.8 0.00 0.00 0.00 67 1010.8
20260504140812 59 224 7.0 11.3 0.00 0.00 0.00 66 1010.8
20260504140307 58 198 5.2 10.4 0.00 0.00 0.00 67 1010.7
20260504130736 56 213 7.8 11.3 0.00 0.00 0.00 68 1011.4
20260504130232 56 202 4.3 13.9 0.00 0.00 0.00 68 1011.1
20260504120156 54 209 3.5 9.6 0.00 0.00 0.00 73 1011.6
20260504110623 52 194 4.3 12.2 0.00 0.00 0.00 72 1011.5
20260504110119 51 224 6.1 9.6 0.00 0.00 0.00 72 1011.5
20260504100545 49 155 1.7 6.1 0.00 0.00 0.00 79 1011.2
20260504081938 50 225 0.0 6.1 0.00 0.00 0.00 65 1010.7
20260504081435 50 206 2.6 5.2 0.00 0.00 0.00 66 1010.5
20260504080931 50 226 6.1 8.7 0.00 0.00 0.00 68 1010.7
20260504080428 50 238 0.0 12.2 0.00 0.00 0.00 68 1010.4
20260504070356 51 218 3.5 9.6 0.00 0.00 0.00 63 1010.3
20260504050743 51 261 1.7 8.7 0.00 0.00 0.00 71 1009.8
20260504050241 51 217 2.6 7.0 0.00 0.00 0.00 71 1009.7
20260504045738 51 225 3.5 7.8 0.00 0.00 0.00 70 1009.7
20260504045232 51 220 3.5 7.8 0.00 0.00 0.00 70 1009.6
20260504044731 51 217 3.5 8.7 0.00 0.00 0.00 72 1009.6
20260504044228 50 232 3.5 7.8 0.00 0.00 0.00 74 1009.7
20260504043725 50 214 4.3 7.0 0.00 0.00 0.00 74 1009.8
20260504043222 51 214 3.5 5.2 0.00 0.00 0.00 72 1009.7
20260504042719 51 202 1.7 4.3 0.00 0.00 0.00 69 1009.8
20260504042216 51 209 2.6 6.1 0.00 0.00 0.00 66 1009.6
20260504041712 51 198 2.6 5.2 0.00 0.00 0.00 66 1009.8
20260504041207 52 199 0.9 5.2 0.00 0.00 0.00 66 1009.7
20260504040704 52 223 3.5 7.8 0.00 0.00 0.00 66 1009.5
20260504040202 52 218 3.5 5.2 0.00 0.00 0.00 65 1009.3
20260504035658 52 209 2.6 7.8 0.00 0.00 0.00 64 1009.5
20260504035155 52 212 4.3 8.7 0.00 0.00 0.00 65 1009.5
20260504034652 52 217 1.7 6.1 0.00 0.00 0.00 66 1009.5
20260504034149 52 218 2.6 8.7 0.00 0.00 0.00 67 1009.4
20260504033647 51 216 1.7 7.0 0.00 0.00 0.00 72 1009.4
20260504033144 51 215 2.6 6.1 0.00 0.00 0.00 74 1009.3
20260504032641 52 207 3.5 4.3 0.00 0.00 0.00 72 1009.3
20260504032138 52 201 1.7 6.1 0.00 0.00 0.00 64 1009.4
20260504031635 53 249 3.5 7.0 0.00 0.00 0.00 61 1009.2
20260504031131 53 170 2.6 4.3 0.00 0.00 0.00 60 1009.4
20260504030628 53 237 4.3 6.1 0.00 0.00 0.00 59 1009.3
20260504030125 53 223 3.5 7.0 0.00 0.00 0.00 60 1009.4
20260504025622 53 201 1.7 8.7 0.00 0.00 0.00 62 1009.3
20260504025119 52 236 3.5 4.3 0.00 0.00 0.00 64 1009.4
20260504024616 53 222 2.6 9.6 0.00 0.00 0.00 63 1009.3
20260504024112 53 226 1.7 7.8 0.00 0.00 0.00 65 1009.3
20260504023609 52 213 2.6 3.5 0.00 0.00 0.00 66 1009.1
20260504023105 53 225 1.7 4.3 0.00 0.00 0.00 62 1009.5
20260504022601 53 228 3.5 5.2 0.00 0.00 0.00 60 1009.3
20260504022057 53 261 3.5 6.1 0.00 0.00 0.00 60 1009.3
20260504021555 53 205 1.7 4.3 0.00 0.00 0.00 61 1009.3
20260504021052 53 226 1.7 6.1 0.00 0.00 0.00 61 1009.3
20260504020549 52 213 2.6 2.6 0.00 0.00 0.00 61 1009.2
20260504020045 53 206 1.7 4.3 0.00 0.00 0.00 58 1009.4
20260504015542 52 243 2.6 3.5 0.00 0.00 0.00 58 1009.4
20260504015037 52 186 0.9 3.5 0.00 0.00 0.00 59 1009.3
20260504014535 52 237 0.0 1.7 0.00 0.00 0.00 62 1009.2
20260504014032 52 179 0.9 2.6 0.00 0.00 0.00 61 1009.0
20260504013530 52 185 0.9 2.6 0.00 0.00 0.00 58 1008.9
20260504013026 53 191 0.9 1.7 0.00 0.00 0.00 57 1009.0
20260504012523 53 185 0.9 2.6 0.00 0.00 0.00 55 1008.8
20260504012021 53 189 0.9 2.6 0.00 0.00 0.00 56 1009.1
20260504011517 53 208 1.7 2.6 0.00 0.00 0.00 54 1009.1
20260504011013 53 172 1.7 4.3 0.00 0.00 0.00 49 1009.1
20260504010509 52 126 1.7 2.6 0.00 0.00 0.00 44 1008.7
20260504010005 53 89 0.0 0.9 0.00 0.00 0.00 44 1008.7
20260504005502 53 140 0.0 1.7 0.00 0.00 0.00 42 1008.6
20260504005000 53 138 0.9 1.7 0.00 0.00 0.00 41 1008.6
20260504004457 54 186 0.0 1.7 0.00 0.00 0.00 40 1008.5
20260504003954 54 150 0.0 1.7 0.00 0.00 0.00 38 1008.5
20260504003450 55 163 0.9 1.7 0.00 0.00 0.00 38 1008.4
20260504002947 55 152 0.0 1.7 0.00 0.00 0.00 38 1008.5
20260504002444 55 203 0.9 1.7 0.00 0.00 0.00 37 1008.2
20260504001942 56 209 1.7 2.6 0.00 0.00 0.00 35 1008.2
20260504001439 56 229 0.0 1.7 0.00 0.00 0.00 35 1008.1
20260504000936 57 271 2.6 4.3 0.00 0.00 0.00 34 1008.1
20260504000433 57 212 0.9 5.2 0.00 0.00 0.00 34 1007.9
20260503235930 57 255 1.7 4.3 0.00 0.00 0.00 35 1007.9
20260503235428 57 321 2.6 3.5 0.00 0.00 0.00 33 1007.7
20260503234925 57 230 2.6 7.0 0.00 0.00 0.00 33 1007.8
20260503234422 58 248 4.3 10.4 0.00 0.00 0.00 32 1007.8
20260503233920 58 231 2.6 7.0 0.00 0.00 0.00 31 1007.8
20260503233416 58 237 1.7 6.1 0.00 0.00 0.00 32 1007.8
20260503232913 58 239 0.9 7.0 0.00 0.00 0.00 31 1007.8
20260503232410 59 221 6.1 9.6 0.00 0.00 0.00 31 1007.6
20260503231908 59 233 7.0 8.7 0.00 0.00 0.00 31 1007.6
20260503231405 59 274 4.3 7.8 0.00 0.00 0.00 30 1007.6
20260503230901 59 188 4.3 8.7 0.00 0.00 0.00 29 1007.4
20260503230358 59 283 4.3 13.9 0.00 0.00 0.00 30 1007.6
20260503225855 59 225 4.3 16.5 0.00 0.00 0.00 30 1007.4
20260503225351 60 292 3.5 13.0 0.00 0.00 0.00 29 1007.6
20260503224848 60 283 3.5 12.2 0.00 0.00 0.00 30 1007.4
20260503224345 60 292 4.3 22.6 0.00 0.00 0.00 29 1007.5
20260503223843 60 226 3.5 12.2 0.00 0.00 0.00 30 1007.2
20260503223340 60 254 4.3 16.5 0.00 0.00 0.00 30 1007.4
20260503222836 60 245 5.2 13.0 0.00 0.00 0.00 30 1007.3
20260503222335 60 225 4.3 12.2 0.00 0.00 0.00 29 1007.2
20260503221832 61 231 4.3 11.3 0.00 0.00 0.00 29 1007.4
20260503221331 60 177 2.6 12.2 0.00 0.00 0.00 31 1007.3
20260503220827 60 335 3.5 13.0 0.00 0.00 0.00 29 1007.1
20260503220324 60 211 4.3 12.2 0.00 0.00 0.00 30 1007.3
20260503215820 60 257 2.6 16.5 0.00 0.00 0.00 32 1007.3
20260503215317 60 200 3.5 22.6 0.00 0.00 0.00 29 1007.4
20260503214816 60 306 5.2 17.4 0.00 0.00 0.00 31 1007.3
20260503214312 60 246 6.1 17.4 0.00 0.00 0.00 31 1007.3
20260503213810 60 285 3.5 17.4 0.00 0.00 0.00 31 1007.2
20260503213307 59 296 8.7 16.5 0.00 0.00 0.00 30 1007.1
20260503212804 60 334 3.5 17.4 0.00 0.00 0.00 30 1007.1
20260503212301 60 287 2.6 12.2 0.00 0.00 0.00 31 1007.1
20260503211759 60 278 6.1 15.6 0.00 0.00 0.00 30 1007.2
20260503211255 60 148 9.6 15.6 0.00 0.00 0.00 32 1007.1
20260503210755 60 32 5.2 16.5 0.00 0.00 0.00 31 1006.9
20260503210253 60 285 5.2 19.1 0.00 0.00 0.00 32 1007.0
20260503205748 59 336 7.8 15.6 0.00 0.00 0.00 31 1006.9
20260503205245 59 256 3.5 14.8 0.00 0.00 0.00 31 1007.0
20260503204741 59 357 7.8 11.3 0.00 0.00 0.00 32 1007.1
20260503204239 59 253 0.0 20.9 0.00 0.00 0.00 34 1007.1
20260503203736 59 299 7.0 16.5 0.00 0.00 0.00 32 1007.1
20260503203233 59 286 7.0 15.6 0.00 0.00 0.00 34 1006.9
20260503202730 59 254 13.9 19.1 0.00 0.00 0.00 32 1007.0